Location: Auckland
(36.8670°S, 174.7670°E)
Time: 10:08:44
(UTC+12:00)

Courier 1B Rocket - Pass Details

Date: 23 July 2019
Orbit: 920 x 1202 km, 28.3° (Epoch: 20 August)

Event Time Altitude Azimuth Distance (km) Brightness Sun altitude
Rises 05:51:06 0° 286° (WNW) 4,080 - -19.0°
Reaches altitude 10° 05:54:08 10° 291° (WNW) 3,095 - -18.4°
Exits shadow 05:55:48 17° 297° (WNW) 2,586 6.8 -18.1°
Maximum altitude 06:01:19 44° 0° (N) 1,532 6.1 -17.0°
Drops below altitude 10° 06:08:05 10° 69° (ENE) 2,922 8.8 -15.7°
Sets 06:10:52 0° 75° (ENE) 3,833 10.1 -15.2°
